This is the latest recevied weather packets stored in our database for station/object RA1AMO-10. If no packets are shown the sender has not sent any weather packets the latest 10 day(s).
| Time | Temp. | Humidity | Pressure | Rain* | Wind** | Luminosity | Snow |
|---|---|---|---|---|---|---|---|
| 1777675648 | 9.44° C | 57% | 1012.5 hPa | - | - | - | - |
| 1777674748 | 9.44° C | 57% | 1012.6 hPa | - | - | - | - |
| 1777673848 | 9.44° C | 57% | 1012.7 hPa | - | - | - | - |
| 1777672948 | 10° C | 57% | 1012.7 hPa | - | - | - | - |
| 1777672048 | 10° C | 56% | 1012.7 hPa | - | - | - | - |
| 1777671147 | 10° C | 57% | 1013 hPa | - | - | - | - |
| 1777670247 | 10° C | 57% | 1013.1 hPa | - | - | - | - |
| 1777669347 | 10° C | 58% | 1013.3 hPa | - | - | - | - |
| 1777668447 | 10° C | 57% | 1013.2 hPa | - | - | - | - |
| 1777667547 | 10° C | 58% | 1013.4 hPa | - | - | - | - |
| 1777666647 | 10° C | 59% | 1013.7 hPa | - | - | - | - |
| 1777665746 | 10° C | 59% | 1013.7 hPa | - | - | - | - |
| 1777664846 | 10° C | 59% | 1013.8 hPa | - | - | - | - |
| 1777663946 | 10.56° C | 58% | 1014 hPa | - | - | - | - |
| 1777663046 | 10.56° C | 57% | 1014 hPa | - | - | - | - |
| 1777662146 | 10.56° C | 57% | 1014.2 hPa | - | - | - | - |
| 1777661246 | 10.56° C | 56% | 1014.1 hPa | - | - | - | - |
| 1777660345 | 10.56° C | 55% | 1014.3 hPa | - | - | - | - |
| 1777659445 | 11.11° C | 54% | 1014.3 hPa | - | - | - | - |
| 1777658545 | 11.67° C | 52% | 1014.2 hPa | - | - | - | - |
| 1777657645 | 12.22° C | 50% | 1014.3 hPa | - | - | - | - |
| 1777656745 | 12.78° C | 49% | 1014.3 hPa | - | - | - | - |
| 1777655844 | 13.33° C | 49% | 1014.3 hPa | - | - | - | - |
| 1777654944 | 15° C | 45% | 1014.2 hPa | - | - | - | - |
| 1777654044 | 15° C | 45% | 1014.2 hPa | - | - | - | - |
* Rain since midnight (hover to see other rain measurements)
** Current wind speed in m/s (hover to see current wind gust speed)